GW0416 Weather Reports


time (UTC)temp
C
wind
direction
speed
KPH
gust
KPH
rain 1hr
cm
rain 24hr
cm
rain mn
cm
humidity
%
barometer
mb
20260831053036 11 257 20.9 30.6 0.00 0.03 0.03 65 1012.5
20260831051538 11 263 22.5 37.0 0.00 0.03 0.03 66 1012.5
20260831050037 11 276 20.9 35.4 0.00 0.03 0.03 67 1012.4
20260831044536 11 271 22.5 32.2 0.00 0.03 0.03 66 1012.6
20260831043037 12 291 24.1 35.4 0.00 0.03 0.03 66 1012.5
20260831041536 12 296 20.9 38.6 0.00 0.03 0.03 64 1012.7
20260831040035 14 292 24.1 37.0 0.00 0.03 0.03 52 1012.6
20260831034537 14 267 29.0 41.8 0.00 0.03 0.03 51 1012.5
20260831033039 15 267 27.4 45.1 0.00 0.03 0.03 51 1012.2
20260831031539 15 257 27.4 46.7 0.00 0.03 0.03 50 1012.2
20260831030038 14 259 29.0 46.7 0.00 0.03 0.03 51 1011.9
20260831024541 15 247 27.4 46.7 0.00 0.03 0.03 50 1011.9
20260831023037 15 250 30.6 48.3 0.00 0.03 0.03 50 1011.7
20260831021538 15 281 33.8 49.9 0.00 0.03 0.03 50 1011.4
20260831020036 15 243 25.7 43.5 0.00 0.03 0.03 50 1011.4
20260831014540 15 255 29.0 54.7 0.00 0.03 0.03 49 1011.3
20260831013039 16 261 27.4 54.7 0.00 0.03 0.03 48 1011.2
20260831011536 16 255 29.0 53.1 0.00 0.03 0.03 47 1011.3
20260831010040 15 289 20.9 40.2 0.00 0.03 0.03 52 1011.5
20260831004553 15 313 24.1 45.1 0.00 0.05 0.03 56 1011.6
20260831003034 15 288 22.5 37.0 0.00 0.05 0.03 54 1011.6
20260831001534 15 297 29.0 48.3 0.00 0.05 0.03 54 1011.7
20260831000035 16 277 38.6 54.7 0.00 0.05 0.03 46 1011.3
20260830234551 16 277 37.0 54.7 0.00 0.76 0.03 45 1011.2
20260830233034 17 286 33.8 59.5 0.00 0.76 0.03 43 1011.1
20260830231535 17 275 32.2 56.3 0.00 0.76 0.03 44 1011.1
20260830230036 17 282 43.5 62.8 0.00 0.76 0.03 42 1011.1
20260830224536 17 237 37.0 54.7 0.00 0.76 0.03 43 1011.1
20260830223040 16 236 29.0 40.2 0.00 0.76 0.03 46 1011.4
20260830221540 16 257 27.4 46.7 0.00 0.76 0.03 47 1011.5
20260830220037 16 247 33.8 49.9 0.00 0.76 0.03 48 1011.7
20260830214537 16 271 33.8 46.7 0.00 0.76 0.03 47 1011.8
20260830213038 16 232 32.2 57.9 0.00 0.76 0.03 46 1011.9
20260830211534 16 238 33.8 54.7 0.00 0.76 0.03 45 1011.9
20260830210041 16 255 29.0 59.5 0.00 0.76 0.03 45 1011.9
20260830204534 17 279 32.2 57.9 0.00 0.76 0.03 43 1011.9
20260830203046 16 360 41.8 57.9 0.00 0.76 0.03 46 1011.7
20260830201536 16 277 37.0 54.7 0.00 0.76 0.03 47 1011.8
20260830200032 16 266 37.0 54.7 0.00 0.76 0.03 45 1011.6
20260830194538 17 298 29.0 53.1 0.00 0.76 0.03 41 1011.6
20260830193038 17 238 33.8 54.7 0.00 0.76 0.03 42 1011.8
20260830191535 17 263 29.0 54.7 0.00 0.76 0.03 43 1011.7
20260830190038 17 246 32.2 49.9 0.00 0.76 0.03 41 1011.6
20260830184536 17 246 30.6 51.5 0.00 0.76 0.03 41 1011.5
20260830183036 17 276 30.6 48.3 0.00 0.76 0.03 40 1011.7
20260830181536 17 257 30.6 45.1 0.00 0.76 0.03 42 1011.8
20260830180042 17 239 29.0 43.5 0.00 0.76 0.03 41 1011.9
20260830174540 16 231 24.1 37.0 0.00 0.76 0.03 50 1011.9
20260830173050 15 241 24.1 35.4 0.00 0.76 0.03 50 1012.0
20260830171539 15 274 19.3 32.2 0.00 0.76 0.03 50 1012.3
20260830170035 15 209 16.1 25.7 0.00 0.76 0.03 54 1012.3
20260830164536 15 219 16.1 33.8 0.00 0.76 0.03 54 1012.5
20260830163040 14 209 12.9 24.1 0.00 0.76 0.03 52 1012.5
20260830161534 15 243 12.9 22.5 0.00 0.76 0.03 50 1012.3
20260830160037 14 258 12.9 24.1 0.00 0.76 0.03 50 1012.6
20260830154538 14 254 12.9 19.3 0.00 0.76 0.03 50 1012.6
20260830153037 13 244 8.0 16.1 0.00 0.76 0.03 52 1012.7
20260830151537 13 291 8.0 14.5 0.00 0.76 0.03 52 1012.8
20260830150054 13 294 4.8 14.5 0.00 0.76 0.03 54 1012.9
20260830144539 13 289 8.0 16.1 0.00 0.76 0.03 55 1013.0
20260830143041 13 317 4.8 12.9 0.00 0.76 0.03 58 1012.9
20260830141537 12 297 4.8 14.5 0.00 0.76 0.03 60 1013.0
20260830140040 12 53 0.0 4.8 0.00 0.76 0.03 70 1013.2
20260830134545 12 120 8.0 14.5 0.00 0.76 0.03 73 1013.3
20260830133035 12 155 1.6 16.1 0.00 0.76 0.03 67 1013.2
20260830131540 12 263 12.9 20.9 0.00 0.76 0.03 65 1012.8
20260830130034 13 261 12.9 17.7 0.00 0.76 0.03 67 1012.8
20260830124541 12 277 9.7 14.5 0.00 0.76 0.03 78 1012.5
20260830123038 12 305 9.7 12.9 0.00 0.76 0.03 82 1012.2
20260830121534 12 273 8.0 14.5 0.00 0.76 0.03 83 1012.0
20260830120042 12 279 9.7 19.3 0.00 0.76 0.03 82 1012.2
20260830114544 12 262 14.5 20.9 0.00 0.76 0.03 82 1012.4
20260830113034 12 280 16.1 27.4 0.00 0.76 0.03 82 1012.2
20260830111534 12 282 20.9 29.0 0.00 0.76 0.03 81 1012.2
20260830110039 12 300 11.3 17.7 0.00 0.76 0.03 81 1012.0
20260830104538 12 281 11.3 19.3 0.00 0.76 0.03 82 1011.8
20260830103047 12 302 9.7 17.7 0.00 0.76 0.03 81 1011.3
20260830101536 12 263 16.1 29.0 0.00 0.76 0.03 81 1011.6
20260830100039 13 280 12.9 20.9 0.00 0.76 0.03 80 1011.4
20260830094539 12 263 16.1 20.9 0.00 0.76 0.03 84 1011.6
20260830093052 12 215 11.3 17.7 0.00 0.76 0.03 85 1011.6
20260830091539 12 219 17.7 24.1 0.00 0.76 0.03 83 1011.7
20260830090035 12 254 19.3 40.2 0.03 0.76 0.03 83 1011.9
20260830084535 12 229 22.5 43.5 0.03 0.76 0.03 82 1012.2
20260830083038 13 230 29.0 46.7 0.03 0.76 0.03 82 1012.3
20260830081537 13 225 32.2 46.7 0.03 0.76 0.03 86 1012.6
20260830080036 13 238 27.4 51.5 0.00 0.74 0.00 86 1013.1
20260830074536 14 242 38.6 53.1 0.00 0.74 0.00 84 1012.4
20260830073036 13 227 24.1 33.8 0.00 0.74 0.00 88 1012.3
20260830071607 13 260 14.5 25.7 0.00 0.74 0.00 88 1011.7
20260830070040 13 274 16.1 25.7 0.00 0.74 0.00 84 1011.8
20260830064534 13 198 11.3 14.5 0.00 0.74 0.00 83 1011.6
20260830063038 13 184 8.0 11.3 0.00 0.74 0.00 86 1011.6
20260830061534 13 196 8.0 11.3 0.00 0.74 0.00 84 1011.5
20260830060033 14 156 3.2 4.8 0.00 0.74 0.00 79 1011.4
20260830054539 15 148 4.8 9.7 0.00 0.74 0.74 78 1011.4